This is the latest recevied weather packets stored in our database for station/object EA1JAV-11. If no packets are shown the sender has not sent any weather packets the latest 10 day(s).
| Time | Temp. | Humidity | Pressure | Rain* | Wind** | Luminosity | Snow |
|---|---|---|---|---|---|---|---|
| 1778126912 | 14.44° C | 48% | 987.2 hPa | - | - | - | - |
| 1778125111 | 14.44° C | 48% | 987.1 hPa | - | - | - | - |
| 1778123311 | 14.44° C | 48% | 987.2 hPa | - | - | - | - |
| 1778121511 | 15° C | 48% | 987.5 hPa | - | - | - | - |
| 1778119711 | 15° C | 48% | 987.6 hPa | - | - | - | - |
| 1778117911 | 15° C | 47% | 987.7 hPa | - | - | - | - |
| 1778116111 | 15° C | 48% | 988 hPa | - | - | - | - |
| 1778114311 | 15.56° C | 47% | 988.2 hPa | - | - | - | - |
| 1778112511 | 15.56° C | 47% | 988.4 hPa | - | - | - | - |
| 1778110711 | 16.11° C | 47% | 988.7 hPa | - | - | - | - |
| 1778108911 | 16.11° C | 47% | 988.8 hPa | - | - | - | - |
| 1778107110 | 16.11° C | 46% | 988.9 hPa | - | - | - | - |
| 1778105310 | 16.67° C | 46% | 989.1 hPa | - | - | - | - |
| 1778103510 | 16.67° C | 45% | 989.2 hPa | - | - | - | - |
| 1778101710 | 17.22° C | 45% | 989.3 hPa | - | - | - | - |
| 1778099910 | 17.22° C | 44% | 989.3 hPa | - | - | - | - |
| 1778098110 | 17.78° C | 44% | 989.1 hPa | - | - | - | - |
| 1778096310 | 17.78° C | 44% | 988.8 hPa | - | - | - | - |
| 1778094510 | 18.33° C | 43% | 988.8 hPa | - | - | - | - |
| 1778092710 | 19.44° C | 43% | 988.9 hPa | - | - | - | - |
| 1778090910 | 20° C | 42% | 989 hPa | - | - | - | - |
| 1778089110 | 20° C | 41% | 989.1 hPa | - | - | - | - |
| 1778087310 | 20.56° C | 41% | 989.3 hPa | - | - | - | - |
| 1778085510 | 21.11° C | 40% | 989.3 hPa | - | - | - | - |
| 1778083710 | 22.78° C | 39% | 989.4 hPa | - | - | - | - |
* Rain since midnight (hover to see other rain measurements)
** Current wind speed in m/s (hover to see current wind gust speed)